Temperature
17 17 17 17 17 17 17 17 17 17 17 17 17 17 17 17 17 17 17 17 17 17 17 16 16 16 16 16 16 16 16 16 16 16 15 15 15 15 15 15 15 15 15
17 17 17 17 17 17 17 17 17 17 17 17 17 17 17 17 17 17 17 17 17 17 16 16 16 16 16 16 16 16 16 16 15 15 15 15 15 15 15 14 15 15 15
17 16 17 17 17 17 17 17 17 17 17 17 17 17 17 17 17 17 17 17 16 16 16 16 16 16 16 16 16 16 16 15 15 15 15 15 15 15 14 14 14 14 14
16 16 16 17 16 16 17 17 17 17 17 17 17 17 17 17 17 17 17 16 16 16 16 16 16 16 16 16 16 16 15 15 15 14 14 14 14 15 15 14 14 14 14
16 16 16 16 16 16 16 16 16 16 16 16 16 16 16 16 16 16 16 16 16 16 16 16 16 16 16 16 16 16 15 15 15 14 14 14 14 14 14 14 14 14 14
16 16 16 16 16 16 16 16 16 16 16 16 16 16 16 16 16 16 16 16 16 16 16 16 16 16 16 16 16 16 15 15 14 14 14 14 14 14 14 14 14 14 14
16 16 16 16 16 16 16 16 16 16 16 16 16 16 16 16 16 16 16 16 16 15 15 16 16 16 16 16 16 15 15 15 14 14 14 14 14 14 14 14 14 14 14
15 15 16 16 16 16 16 16 16 16 16 16 16 16 16 16 16 16 16 16 16 15 15 15 15 16 16 15 15 15 15 15 14 14 13 14 14 14 14 14 14 14 14
15 15 15 15 15 16 16 16 16 16 16 16 16 16 16 16 16 16 16 16 15 15 15 15 15 15 15 15 15 15 15 15 14 13 13 14 14 14 14 14 13 13 13
14 14 15 15 15 15 15 15 16 16 16 16 16 16 16 16 16 16 16 15 15 15 15 15 15 15 15 15 15 15 15 14 14 13 13 14 14 14 14 14 13 13 13
14 14 14 14 15 15 15 15 15 15 15 15 15 15 15 15 15 15 15 15 15 15 15 15 15 15 15 15 15 15 15 15 14 14 13 14 14 14 14 14 13 13 13
13 13 14 14 14 14 15 15 15 15 15 15 15 15 15 15 15 15 15 15 15 15 15 15 15 15 15 15 15 15 15 15 14 14 14 14 14 14 14 14 13 13 13
12 13 13 13 14 14 14 14 14 15 15 15 15 15 15 15 15 15 15 15 15 15 15 15 14 14 15 15 15 15 15 14 14 14 14 14 14 14 14 14 14 13 13
12 12 13 13 13 13 14 14 14 14 14 14 15 14 14 15 15 15 15 15 15 15 15 15 15 14 14 14 14 14 14 14 14 14 14 14 14 14 14 14 14 14 13
11 12 12 13 13 13 13 13 14 14 14 14 14 14 14 14 14 14 14 14 14 15 15 15 15 14 14 14 14 14 14 14 14 14 14 14 14 14 14 14 14 14 13
11 11 11 12 12 12 13 13 13 13 14 14 14 14 14 14 14 14 14 14 14 14 14 14 14 14 14 14 14 14 14 14 14 14 14 14 14 14 14 14 14 14 13
10 10 11 11 11 12 12 12 13 13 13 13 13 14 14 14 14 14 14 14 14 14 14 14 14 14 14 13 13 14 14 14 13 14 14 13 14 14 14 14 14 14 13
10 10 10 10 11 11 11 12 12 12 12 13 13 13 13 13 13 14 14 14 14 14 14 13 14 14 13 13 13 13 14 13 13 13 13 13 13 14 14 14 14 14 14
9 9 10 10 10 11 11 11 11 11 12 12 12 13 13 13 13 13 13 13 13 13 13 13 13 13 13 13 13 13 13 13 13 13 13 13 13 13 14 14 14 14 14
8 9 9 9 10 10 10 10 11 11 11 12 12 12 12 12 13 13 13 13 13 13 13 13 13 13 13 13 13 13 13 13 13 13 13 13 13 13 13 13 14 14 13
8 8 8 9 9 9 9 10 10 11 11 11 11 12 12 12 12 12 12 13 13 13 13 13 13 13 12 12 12 12 12 12 12 12 13 13 13 13 13 13 13 13 13
7 7 8 8 8 8 9 9 9 10 10 10 11 11 11 11 11 12 12 12 12 12 12 12 12 12 12 12 12 11 11 12 12 12 12 13 13 13 13 13 13 13 13
7 7 7 7 8 8 8 9 9 9 10 10 10 10 11 11 11 11 11 11 11 12 12 12 12 11 11 12 11 11 11 11 12 12 12 13 13 13 13 13 13 13 13
6 6 7 7 7 7 8 8 8 9 9 9 9 10 10 10 10 11 11 11 11 11 11 11 11 11 11 11 11 11 11 12 12 12 12 13 13 12 12 13 13 13 13
6 6 6 6 7 7 7 7 8 8 8 8 9 9 9 9 9 10 10 10 10 10 11 10 11 11 10 10 11 11 11 11 11 11 11 12 12 12 12 12 12 12 12
5 6 6 6 6 6 7 7 7 7 8 8 8 8 8 8 9 9 9 9 9 10 10 10 10 10 10 10 10 10 10 10 11 11 11 11 11 12 12 12 12 12 12
Wind_Speed
4 6 10 8 8 8 8 9 10 11 11 11 11 10 10 9 9 9 9 9 9 9 10 9 9 9 10 10 11 11 11 12 13 14 14 13 12 11 11 10 13 13 13
4 7 10 7 7 8 8 9 9 10 11 11 10 10 10 9 9 9 9 9 9 9 9 9 9 9 10 11 11 11 11 11 11 12 14 13 12 11 12 14 13 12 13
4 6 8 7 6 7 8 8 9 10 10 10 10 10 10 9 9 9 9 9 9 9 9 10 10 10 10 10 11 10 9 9 9 9 11 12 11 11 11 13 13 12 12
5 5 6 7 5 6 7 8 9 9 10 10 10 10 10 10 9 9 9 9 9 9 10 10 11 11 10 10 10 9 8 6 5 5 5 10 12 10 10 11 11 11 11
6 6 7 7 5 5 6 7 8 9 9 9 10 10 10 10 10 10 10 10 9 9 10 11 12 12 11 10 9 8 7 5 5 5 4 14 13 9 9 10 10 10 10
7 7 7 5 4 4 4 6 8 9 9 9 10 10 10 10 10 10 10 10 10 10 11 12 12 12 11 10 9 8 6 5 6 5 7 14 12 9 9 9 9 9 9
7 7 4 3 3 3 4 6 8 9 10 9 10 10 11 11 11 11 10 10 11 11 12 13 13 12 11 10 9 8 6 6 7 2 8 14 12 9 8 8 8 8 8
7 7 5 1 2 4 5 6 7 9 10 10 11 11 11 11 11 11 11 11 12 13 14 14 13 13 12 11 10 8 7 7 6 3 10 14 12 9 8 7 7 7 7
7 6 6 4 2 4 6 7 7 8 10 11 12 12 12 12 13 12 12 13 13 14 15 15 14 13 12 11 10 9 8 8 9 3 9 13 11 9 8 7 6 6 6
6 5 5 6 5 4 5 8 9 9 10 12 13 13 13 13 13 14 14 14 15 16 16 16 15 14 13 12 11 10 9 8 10 5 8 13 12 9 8 7 6 6 6
7 6 5 5 6 6 6 7 8 10 11 12 13 15 14 13 13 14 16 16 17 17 17 17 16 15 14 13 12 11 10 10 11 6 8 14 13 10 9 8 7 7 6
8 7 6 6 6 7 7 4 6 8 9 11 11 13 13 13 13 13 16 19 19 18 18 18 17 16 14 11 12 12 10 13 11 6 10 16 13 11 10 9 8 8 7
7 7 7 6 6 6 5 4 4 5 5 8 10 11 11 10 9 9 8 12 15 15 14 15 15 13 13 11 11 12 13 13 10 8 13 18 15 13 11 11 10 9 9
7 7 7 6 6 6 5 4 4 3 3 3 7 9 6 4 4 4 5 8 10 11 10 10 10 12 13 14 13 13 14 11 8 8 13 19 16 14 13 12 12 11 11
7 7 7 7 7 6 5 4 4 3 3 4 5 7 6 4 5 4 4 6 8 10 9 8 9 10 10 11 12 12 11 12 10 9 12 19 18 15 14 14 13 13 13
8 7 7 7 6 6 5 5 5 4 4 4 4 6 7 5 4 5 5 5 7 9 10 9 8 8 7 6 8 9 9 10 11 10 13 17 19 18 16 15 15 15 15
8 8 7 7 7 7 6 6 5 4 4 3 4 7 7 6 5 5 5 5 6 9 9 7 7 6 6 6 7 7 6 6 7 8 11 14 16 19 19 18 17 16 16
8 8 8 8 7 6 6 6 4 4 3 3 4 5 6 6 6 4 4 5 5 6 5 6 6 6 6 5 4 5 5 5 6 7 9 12 14 15 18 20 19 18 17
7 8 8 7 7 7 7 5 5 4 4 4 4 4 5 5 6 4 4 4 4 4 4 6 5 5 5 5 5 5 5 5 5 5 6 9 12 14 15 19 22 21 19
7 7 8 7 6 7 5 5 4 4 3 3 3 3 4 3 3 3 3 5 5 5 5 5 6 5 4 5 5 5 5 5 5 6 7 7 9 13 15 15 16 18 21
8 8 8 8 7 5 4 4 4 3 3 2 2 2 3 3 2 2 3 4 4 5 6 6 5 6 5 4 3 3 5 6 7 7 6 6 7 10 13 14 14 14 15
8 8 8 8 7 6 4 4 3 3 2 1 1 2 3 3 2 2 3 3 4 4 5 6 5 5 5 5 4 3 3 5 7 9 7 7 8 6 8 13 14 14 14
8 8 8 8 8 7 5 3 3 2 2 2 3 3 3 3 3 3 3 2 3 3 4 5 6 7 6 6 6 5 4 6 4 5 9 9 8 7 7 8 11 14 15
8 7 8 8 8 8 6 4 3 2 2 2 2 3 3 4 4 4 4 3 2 2 3 4 5 5 5 6 6 7 5 3 4 4 5 8 10 9 9 7 9 12 15
8 8 7 7 8 8 7 6 3 3 2 2 3 4 4 4 5 6 5 3 3 2 2 2 3 3 4 5 5 5 7 6 5 4 4 4 6 7 7 7 7 8 13
8 7 7 7 8 8 8 7 6 5 4 5 5 4 4 4 5 6 6 4 4 3 3 2 3 4 4 5 5 5 5 5 5 6 7 5 5 5 7 6 7 7 9
Wind_Direction
31 94 129 140 147 146 150 151 151 152 151 153 154 154 152 147 144 142 138 139 138 137 134 130 127 123 116 109 102 100 97 92 95 92 88 84 83 80 75 81 85 79 80
21 95 128 134 150 153 154 155 156 158 159 160 161 163 163 159 157 157 155 155 153 151 146 140 136 128 120 115 110 108 107 104 105 105 99 87 81 78 73 72 83 86 83
25 88 128 133 143 153 157 160 164 164 165 167 168 171 171 169 169 169 168 166 165 163 157 149 142 131 125 122 116 116 118 123 131 137 127 111 96 86 83 82 85 88 86
25 68 113 127 143 155 163 166 172 172 173 177 177 179 178 178 181 182 181 176 175 170 161 151 141 135 132 129 127 127 132 148 168 185 176 125 107 99 93 91 90 89 87
21 46 103 129 141 157 171 177 181 182 181 184 185 186 186 187 191 191 190 184 182 172 161 152 147 143 141 140 138 140 151 182 215 240 125 107 107 110 103 98 97 94 90
17 32 101 133 151 169 180 189 192 194 192 191 191 193 193 195 199 199 195 189 186 176 167 159 154 151 150 150 150 154 173 215 252 249 125 114 114 117 112 107 103 100 96
12 14 56 121 169 195 203 203 204 206 206 203 201 200 201 203 206 205 199 193 187 181 172 167 161 159 159 160 161 168 191 233 262 249 111 112 120 126 123 118 112 108 102
2 4 12 36 206 216 222 219 213 214 216 213 210 208 208 210 211 209 203 196 189 185 179 175 170 168 169 171 172 179 201 240 270 189 116 119 130 134 134 129 122 115 110
356 358 355 343 304 245 234 231 223 220 222 220 215 214 213 214 214 212 207 200 194 190 185 182 177 177 177 178 180 187 207 240 279 259 134 131 141 143 143 140 137 132 126
349 354 350 339 329 302 254 239 230 227 225 224 223 221 219 219 218 216 211 205 198 193 189 185 185 184 184 182 184 191 209 241 263 248 139 144 154 159 161 159 158 154 148
348 346 340 339 338 321 287 249 230 231 230 226 226 226 222 221 219 216 213 206 200 195 192 189 189 188 186 186 188 194 208 236 248 219 149 154 163 171 177 177 177 175 171
336 335 337 337 334 323 308 285 244 236 230 224 226 221 216 219 218 217 212 204 200 197 195 193 192 190 186 189 193 196 213 234 238 192 159 162 171 182 189 192 194 193 191
323 325 329 329 322 315 309 294 262 251 237 228 233 225 212 214 214 214 195 192 195 196 196 198 192 193 195 197 189 197 218 232 223 191 169 170 179 191 198 201 204 206 206
311 312 318 322 311 304 302 297 280 262 245 237 235 236 217 207 206 201 186 182 187 192 192 190 191 200 205 208 196 196 213 226 221 190 176 177 184 197 205 207 210 213 216
307 305 308 306 301 301 297 288 284 266 256 249 243 239 227 209 212 209 198 188 190 192 191 193 196 202 206 211 206 202 205 212 214 198 178 183 188 198 209 214 217 218 221
307 303 302 300 296 295 291 282 273 269 265 257 251 242 230 212 208 206 205 200 197 198 198 197 199 204 208 209 211 209 208 207 211 197 177 189 196 201 209 217 222 224 224
309 306 302 296 289 287 285 280 277 265 257 251 248 246 237 220 212 210 207 208 204 199 197 196 201 204 210 211 213 216 212 212 214 205 184 186 197 207 212 218 224 227 229
319 315 311 307 305 297 289 283 282 279 266 257 259 258 248 231 217 209 212 215 208 198 195 195 197 200 207 210 213 221 219 216 221 217 200 191 192 202 213 219 223 226 229
323 318 313 308 307 305 298 288 282 276 265 265 261 260 261 247 226 212 213 214 202 197 201 203 201 197 201 206 213 220 225 226 222 223 218 205 199 199 201 214 220 223 225
328 324 321 317 313 308 302 293 288 275 268 263 262 265 275 273 250 223 214 214 208 202 203 202 203 200 200 199 215 225 225 227 228 228 225 215 211 205 202 204 211 221 224
348 341 332 325 320 318 314 305 287 278 277 281 277 292 299 302 296 258 241 222 218 211 209 207 203 205 210 190 197 236 246 238 235 229 226 221 214 208 206 205 203 206 216
348 343 338 333 328 325 316 301 284 277 272 287 312 317 318 318 318 293 261 238 222 216 215 212 208 208 211 190 185 188 228 238 239 232 225 225 223 210 207 206 203 203 205
350 344 341 338 335 328 318 317 325 331 338 355 359 351 348 353 355 351 321 286 250 223 222 218 209 211 216 208 196 184 193 218 221 227 223 223 222 219 215 207 206 207 205
347 342 342 344 347 349 348 356 1 355 347 339 341 348 353 6 9 5 347 335 304 271 248 237 225 223 218 223 220 221 220 200 197 224 229 220 218 221 220 214 210 209 208
350 349 348 353 359 2 4 7 3 359 353 357 2 8 8 10 13 13 2 355 342 325 300 272 259 245 233 229 225 223 235 243 233 216 233 227 223 222 222 220 215 212 211
358 357 357 0 5 6 10 15 19 18 16 18 11 13 16 14 14 13 7 4 355 344 322 290 262 251 249 247 241 230 222 223 220 220 229 229 228 228 224 223 221 217 212
Height
1512 1511 1511 1512 1513 1514 1516 1517 1519 1520 1522 1523 1525 1526 1527 1528 1529 1530 1531 1531 1532 1532 1532 1533 1534 1534 1535 1535 1536 1537 1537 1538 1538 1539 1539 1539 1540 1540 1540 1540 1541 1541 1541
1513 1511 1511 1512 1513 1514 1516 1517 1519 1521 1522 1523 1525 1526 1527 1528 1529 1530 1531 1531 1532 1533 1533 1534 1534 1535 1536 1537 1537 1538 1539 1539 1540 1540 1540 1541 1541 1541 1542 1542 1542 1542 1542
1513 1512 1511 1512 1513 1514 1516 1518 1519 1521 1522 1524 1525 1526 1527 1528 1529 1530 1531 1532 1532 1533 1534 1535 1535 1536 1537 1538 1538 1539 1540 1541 1541 1541 1542 1542 1542 1543 1543 1543 1543 1543 1543
1513 1512 1512 1512 1513 1514 1516 1517 1519 1520 1522 1523 1525 1526 1527 1528 1529 1530 1531 1532 1532 1533 1534 1535 1536 1537 1538 1538 1539 1540 1541 1542 1542 1543 1543 1543 1543 1543 1543 1544 1544 1544 1544
1512 1512 1512 1512 1513 1514 1516 1517 1519 1520 1521 1523 1524 1525 1526 1528 1529 1530 1530 1531 1532 1533 1534 1535 1536 1537 1538 1539 1540 1541 1542 1543 1543 1544 1544 1544 1544 1544 1544 1544 1544 1544 1544
1512 1512 1512 1512 1513 1514 1515 1516 1518 1519 1521 1522 1523 1524 1526 1527 1528 1529 1530 1531 1532 1533 1534 1535 1536 1537 1538 1539 1540 1541 1542 1543 1544 1545 1545 1544 1544 1545 1544 1545 1545 1545 1545
1511 1511 1511 1512 1512 1513 1514 1515 1516 1518 1519 1521 1522 1523 1524 1525 1527 1528 1529 1530 1531 1532 1533 1534 1536 1537 1538 1539 1540 1541 1542 1543 1544 1545 1545 1544 1544 1545 1545 1545 1545 1545 1545
1510 1510 1511 1511 1511 1512 1513 1514 1515 1516 1517 1519 1520 1522 1523 1524 1525 1526 1527 1529 1530 1531 1532 1534 1535 1536 1537 1538 1540 1541 1542 1543 1544 1545 1545 1544 1544 1544 1545 1545 1545 1545 1545
1509 1509 1509 1510 1510 1510 1511 1512 1513 1514 1515 1517 1518 1519 1521 1522 1523 1524 1525 1527 1528 1529 1531 1532 1534 1535 1536 1537 1539 1540 1541 1542 1543 1544 1544 1544 1544 1544 1544 1545 1545 1545 1545
1508 1508 1508 1508 1508 1509 1509 1510 1511 1512 1513 1514 1515 1517 1518 1519 1521 1522 1523 1525 1526 1527 1529 1531 1532 1534 1535 1536 1537 1539 1540 1541 1542 1543 1543 1543 1544 1544 1544 1544 1545 1545 1545
1507 1506 1506 1506 1506 1506 1507 1508 1508 1509 1510 1511 1513 1514 1515 1516 1518 1519 1520 1522 1523 1525 1527 1528 1530 1532 1533 1534 1536 1537 1538 1540 1541 1542 1542 1542 1543 1543 1543 1543 1544 1544 1545
1505 1504 1504 1504 1504 1504 1504 1505 1506 1506 1507 1508 1509 1511 1512 1513 1514 1516 1517 1519 1521 1522 1524 1526 1527 1529 1531 1532 1533 1535 1536 1538 1539 1540 1541 1541 1542 1542 1542 1542 1543 1543 1544
1503 1502 1502 1501 1501 1501 1502 1502 1503 1503 1504 1505 1506 1508 1509 1510 1511 1513 1514 1516 1517 1519 1521 1522 1524 1526 1527 1529 1531 1532 1534 1536 1537 1538 1539 1539 1540 1540 1541 1541 1542 1542 1543
1500 1499 1499 1498 1498 1498 1498 1499 1500 1500 1501 1502 1503 1505 1506 1507 1508 1509 1511 1512 1513 1515 1517 1519 1520 1522 1524 1526 1528 1529 1531 1533 1535 1536 1536 1537 1538 1538 1539 1539 1540 1541 1541
1497 1496 1496 1495 1495 1495 1495 1495 1496 1497 1498 1499 1500 1501 1502 1503 1504 1506 1507 1508 1510 1511 1513 1515 1517 1519 1521 1523 1525 1526 1528 1530 1532 1533 1534 1534 1535 1536 1537 1537 1538 1539 1539
1494 1493 1492 1491 1491 1491 1491 1491 1492 1493 1494 1495 1495 1497 1498 1499 1500 1502 1503 1504 1506 1507 1509 1511 1513 1515 1517 1519 1521 1523 1525 1527 1529 1530 1531 1531 1532 1533 1534 1535 1535 1536 1537
1490 1489 1488 1488 1487 1487 1487 1487 1488 1488 1489 1490 1491 1492 1494 1495 1496 1498 1499 1500 1502 1503 1505 1507 1509 1511 1513 1515 1517 1519 1521 1523 1525 1526 1527 1528 1528 1530 1530 1531 1532 1533 1534
1487 1485 1485 1484 1483 1483 1483 1483 1483 1484 1485 1486 1487 1488 1490 1491 1492 1493 1494 1496 1498 1499 1501 1503 1504 1506 1508 1510 1512 1514 1516 1518 1520 1522 1523 1524 1524 1525 1526 1528 1529 1530 1531
1484 1482 1481 1480 1479 1479 1478 1478 1479 1479 1480 1481 1483 1484 1485 1487 1488 1489 1490 1491 1493 1495 1497 1498 1500 1501 1503 1505 1507 1509 1511 1513 1515 1517 1518 1519 1520 1521 1522 1523 1524 1526 1527
1482 1480 1478 1477 1476 1475 1474 1474 1474 1475 1476 1477 1478 1479 1480 1482 1483 1484 1485 1487 1489 1490 1492 1493 1495 1496 1498 1500 1502 1504 1506 1508 1509 1510 1513 1514 1515 1516 1517 1518 1520 1521 1522
1479 1477 1475 1474 1472 1471 1471 1470 1470 1471 1472 1473 1474 1475 1476 1477 1478 1480 1481 1482 1484 1485 1487 1489 1490 1491 1493 1496 1498 1499 1501 1502 1503 1504 1506 1508 1509 1511 1512 1513 1514 1516 1517
1477 1475 1473 1471 1470 1469 1468 1467 1468 1468 1469 1469 1470 1471 1472 1473 1474 1475 1476 1477 1479 1481 1482 1484 1486 1487 1488 1491 1492 1494 1495 1497 1496 1498 1499 1501 1503 1504 1506 1507 1508 1510 1511
1476 1474 1472 1470 1468 1467 1466 1465 1465 1466 1466 1466 1467 1467 1468 1469 1470 1471 1472 1473 1474 1475 1477 1479 1481 1482 1483 1485 1487 1488 1489 1488 1490 1491 1492 1494 1495 1497 1499 1501 1502 1504 1505
1475 1473 1471 1469 1467 1465 1464 1463 1463 1463 1463 1463 1464 1464 1465 1465 1466 1466 1467 1468 1470 1471 1472 1474 1476 1477 1478 1479 1481 1482 1483 1484 1485 1484 1486 1487 1488 1490 1493 1494 1496 1497 1499
1475 1472 1470 1468 1466 1464 1463 1462 1462 1461 1461 1461 1461 1462 1462 1462 1462 1463 1463 1464 1465 1466 1467 1469 1470 1471 1473 1474 1475 1476 1477 1478 1479 1479 1479 1480 1481 1482 1485 1487 1489 1490 1492
1474 1471 1469 1467 1465 1464 1463 1461 1461 1460 1460 1460 1460 1460 1460 1460 1460 1459 1460 1460 1461 1462 1463 1464 1465 1466 1467 1468 1469 1469 1470 1471 1471 1473 1473 1473 1474 1475 1477 1479 1481 1483 1484